Wind_Speed
22 22 21 20 19 18 17 16 14 13 12 10 8 7 7 7 7 6 7 9 10 9 9 8 6 5 4 4 4 5 5 5 5 6 6 8 9 9 8 7 7 8
22 22 22 21 20 20 18 16 15 15 13 11 10 9 10 10 9 8 7 9 10 10 9 9 8 7 6 5 5 5 5 5 6 6 7 8 9 9 8 8 8 8
23 23 23 22 21 20 19 17 16 16 15 14 13 12 12 13 11 10 9 9 10 11 10 10 10 9 8 7 5 5 5 5 6 7 8 8 9 10 10 10 10 9
23 23 23 23 22 22 21 20 18 17 17 16 15 14 14 15 13 11 10 9 9 10 11 11 11 10 9 8 7 6 5 5 6 7 8 9 10 10 10 10 10 10
22 23 23 24 23 23 23 22 20 19 18 17 16 15 15 16 14 12 10 9 9 9 10 11 11 11 10 9 8 7 6 6 5 6 8 9 9 9 9 9 10 10
23 23 23 24 25 25 25 23 21 20 19 18 17 17 16 16 15 13 12 11 10 10 10 10 11 11 11 11 10 9 8 7 6 6 7 7 8 8 9 9 9 10
25 24 24 24 25 26 26 24 23 22 21 20 19 18 18 18 16 14 13 13 13 12 11 11 11 11 12 12 11 10 10 9 8 7 7 7 7 8 9 9 9 10
26 25 24 24 25 26 26 26 25 24 23 22 21 20 19 19 17 16 15 15 15 14 14 13 12 12 13 13 12 11 11 11 10 9 9 8 8 7 9 10 10 11
27 27 26 26 26 26 26 26 26 25 25 24 23 22 22 21 19 18 17 17 16 16 16 16 15 14 14 13 13 12 12 12 12 12 11 11 10 9 9 11 12 12
28 28 28 28 28 27 26 26 26 26 25 25 24 24 24 23 21 20 19 18 18 17 17 16 16 16 15 14 14 13 13 13 14 14 14 13 13 12 12 12 12 13
29 29 30 30 29 28 27 26 26 26 25 25 25 25 25 24 23 22 21 20 19 18 18 17 17 16 16 15 15 15 15 15 15 16 16 16 16 16 15 14 14 14
30 30 30 30 29 28 28 27 27 27 27 26 25 25 25 25 25 24 23 22 20 19 19 19 18 18 17 17 17 17 17 17 17 17 17 18 18 18 18 18 17 16
32 31 30 29 29 29 28 29 29 29 29 28 27 27 27 26 26 25 25 24 23 22 21 20 20 20 20 19 19 19 19 19 19 19 19 19 20 20 20 20 19 19
33 32 31 30 29 29 29 30 30 30 30 30 30 30 29 28 27 27 26 26 25 25 24 23 23 23 22 21 21 21 21 21 21 21 21 21 21 21 22 22 22 21
33 33 33 32 31 30 30 30 30 31 31 31 32 32 31 30 29 29 29 29 28 28 27 26 26 25 24 23 23 23 23 23 22 22 23 23 23 23 24 24 24 24
32 33 33 33 32 32 31 31 31 31 31 32 32 32 32 32 31 31 31 31 30 30 29 29 28 27 25 24 24 24 24 24 24 24 24 24 25 25 25 26 26 26
32 32 33 33 33 33 32 32 32 32 32 32 32 32 32 33 33 33 33 33 32 31 31 30 29 27 26 25 25 25 25 25 25 25 25 26 26 27 27 27 27 27
31 32 32 32 33 33 33 33 33 33 33 33 33 32 32 33 33 34 34 34 33 33 32 31 30 28 27 26 26 26 26 26 26 26 27 27 27 27 27 27 28 28
30 30 31 31 32 32 33 34 34 34 34 33 33 32 33 33 33 34 34 34 35 34 33 32 31 29 28 27 27 26 26 27 27 28 28 28 28 27 27 28 28 29
30 30 30 29 30 31 32 34 34 34 34 34 34 34 34 34 34 34 34 34 35 35 34 33 32 30 29 28 28 27 27 27 28 29 29 29 28 28 28 28 28 29
30 30 30 29 29 30 31 33 33 34 34 34 34 35 35 34 34 34 34 34 35 35 34 34 32 31 30 29 28 28 28 28 30 31 31 30 29 28 28 28 28 29
30 30 30 31 31 31 32 33 33 33 33 33 33 34 35 35 35 35 35 35 34 35 35 34 32 31 30 30 29 29 29 30 31 32 32 32 31 29 29 28 28 29
30 31 31 32 33 35 34 34 34 33 32 32 32 33 34 35 35 35 35 35 35 35 35 33 30 29 29 29 29 29 30 31 32 33 33 33 32 31 30 29 29 29
30 31 32 33 35 36 35 34 34 33 33 32 32 32 33 33 33 34 35 36 36 35 35 33 31 29 29 29 28 28 30 31 32 33 34 34 33 32 32 31 30 30
31 31 32 33 35 35 35 34 32 32 33 34 33 33 32 32 31 32 33 34 34 34 34 34 33 31 31 30 29 29 30 31 32 34 35 35 34 34 33 32 31 31
32 32 32 32 33 34 34 33 32 31 32 33 34 33 31 31 30 30 31 31 31 32 33 33 33 32 31 31 31 31 31 32 33 34 35 35 34 34 33 33 32 31
Wind_Direction
206 207 209 210 212 215 214 209 205 202 202 205 209 216 224 224 218 209 205 204 202 201 199 198 201 205 200 193 190 186 183 189 195 202 205 201 201 201 197 189 185 186
208 207 208 208 210 215 217 212 206 204 203 202 206 213 221 225 221 214 210 209 207 207 205 203 205 209 209 203 198 190 178 176 184 193 198 194 191 190 185 180 178 177
210 209 208 207 208 213 218 217 212 209 206 203 205 210 217 223 222 216 214 212 211 211 210 209 207 209 211 210 204 195 180 174 179 185 187 181 178 179 175 170 167 164
212 211 210 208 207 211 217 220 218 214 211 207 206 209 216 221 222 218 216 216 215 215 214 214 213 211 212 213 213 204 190 182 180 182 181 175 173 176 172 168 168 165
212 212 212 210 208 210 215 219 220 218 216 212 209 212 217 221 222 219 219 221 220 220 218 218 219 218 217 216 217 215 207 196 188 185 185 182 181 183 181 178 178 175
211 212 212 212 211 211 215 218 219 220 219 217 214 215 220 223 223 220 220 223 224 225 224 223 223 225 225 223 219 219 218 212 203 197 195 194 193 194 192 189 187 185
212 212 213 214 214 214 215 217 218 219 220 221 219 219 221 224 225 222 221 224 227 228 228 227 227 226 228 228 226 224 223 221 217 213 211 208 202 200 200 197 192 190
216 215 215 216 216 216 217 218 218 218 218 221 223 224 225 226 227 225 224 226 229 230 231 231 230 230 230 229 229 230 229 228 226 222 223 221 212 204 203 202 197 192
220 218 217 218 219 219 219 219 220 220 220 221 222 225 229 230 229 228 226 227 229 231 232 231 231 231 232 232 231 231 232 234 233 229 227 226 222 215 210 207 204 197
222 220 219 220 220 220 220 221 222 223 223 222 222 223 228 230 231 231 230 229 229 230 231 232 232 231 232 234 234 234 234 234 236 235 231 229 227 225 221 214 209 205
225 223 222 221 220 220 220 221 223 225 225 224 223 223 225 227 229 231 232 232 231 231 232 233 234 234 234 236 236 237 237 236 237 237 236 234 233 232 230 225 216 211
228 227 225 223 222 222 221 221 223 225 226 226 225 224 224 225 227 229 232 233 232 233 233 233 234 236 237 239 240 241 241 240 240 240 238 237 236 235 236 234 227 220
230 231 230 228 226 224 223 223 223 225 227 228 228 227 226 226 226 228 231 233 234 234 235 235 236 238 239 240 242 243 244 243 243 243 242 241 238 237 238 239 237 232
231 233 233 232 231 229 227 226 226 225 226 228 229 229 229 228 228 228 230 232 233 234 235 236 237 239 240 240 242 244 246 246 246 245 245 244 242 240 239 240 241 240
230 232 234 235 234 233 232 231 230 229 229 229 230 231 231 231 231 230 231 232 233 233 234 235 237 239 240 241 242 244 245 247 248 248 247 246 244 243 241 241 242 243
228 231 233 235 236 236 235 235 234 234 233 233 232 233 233 234 234 234 234 233 234 235 235 236 237 238 239 241 242 243 244 246 247 248 249 247 246 245 243 242 243 243
227 230 233 235 238 238 238 239 238 238 238 237 237 236 235 236 236 237 238 237 237 238 238 238 238 238 239 240 241 242 243 244 246 248 249 249 248 247 246 245 244 244
226 228 231 233 236 238 240 240 241 241 241 242 241 240 239 239 239 239 240 241 241 241 242 242 241 240 240 240 241 241 242 244 245 247 248 249 249 249 248 248 247 246
225 227 229 231 233 236 238 240 241 242 243 244 245 244 243 242 241 241 242 242 244 244 245 245 245 244 243 242 242 242 243 244 246 247 248 249 250 250 250 250 249 249
225 226 227 228 230 232 235 237 239 241 243 244 245 246 246 245 244 244 244 244 245 246 247 247 247 246 245 244 244 243 243 244 246 247 249 249 250 250 250 251 251 251
226 226 226 225 226 228 230 233 236 238 240 242 244 245 247 248 247 247 246 246 247 247 248 248 248 247 246 246 245 245 244 244 246 247 249 250 250 249 250 250 251 252
230 230 228 226 225 226 227 228 230 233 235 238 241 244 246 247 248 248 248 248 248 248 249 249 248 247 247 246 245 245 244 244 244 246 249 250 250 250 250 250 251 252
232 230 228 226 226 227 228 229 229 230 231 233 236 240 243 246 248 249 249 249 249 249 250 250 249 248 247 247 245 244 243 243 244 246 248 250 251 251 251 251 250 251
229 229 227 226 226 228 230 232 233 233 233 233 234 237 240 243 246 247 248 249 249 249 250 251 250 249 248 248 246 244 244 244 244 246 248 250 251 251 252 252 251 251
225 225 226 226 227 229 232 234 236 238 237 236 236 238 239 241 244 246 246 247 247 247 249 250 250 249 249 249 248 246 246 245 246 247 249 250 252 252 252 252 252 252
226 224 223 225 228 230 232 234 237 239 240 240 241 242 241 240 243 246 248 246 244 245 246 248 248 248 248 249 249 248 248 248 247 248 250 252 253 254 254 254 253 253
Height
3222 3224 3226 3228 3230 3231 3233 3234 3235 3236 3238 3239 3240 3242 3243 3244 3245 3246 3247 3248 3248 3249 3249 3250 3250 3250 3251 3251 3252 3252 3253 3254 3255 3255 3256 3257 3258 3258 3259 3260 3260 3261
3221 3223 3225 3227 3229 3230 3232 3233 3234 3235 3237 3238 3239 3241 3242 3243 3245 3245 3246 3247 3248 3249 3249 3250 3250 3251 3251 3252 3252 3253 3253 3254 3255 3255 3256 3256 3257 3258 3259 3259 3260 3261
3219 3221 3223 3225 3227 3229 3231 3232 3234 3235 3236 3237 3238 3239 3241 3243 3244 3245 3246 3247 3247 3248 3249 3250 3250 3251 3252 3252 3253 3253 3254 3254 3254 3255 3256 3256 3257 3258 3258 3259 3260 3261
3218 3220 3222 3224 3226 3228 3229 3231 3233 3234 3235 3236 3237 3239 3240 3242 3243 3244 3245 3246 3247 3248 3249 3250 3250 3251 3251 3252 3253 3253 3254 3254 3254 3255 3256 3256 3257 3258 3258 3259 3260 3261
3217 3219 3221 3223 3224 3226 3227 3229 3231 3233 3234 3236 3237 3238 3239 3240 3242 3243 3244 3245 3246 3247 3248 3249 3250 3250 3251 3252 3252 3253 3253 3254 3254 3255 3256 3256 3257 3257 3258 3259 3259 3260
3215 3217 3219 3221 3223 3224 3226 3227 3230 3231 3233 3235 3236 3237 3238 3239 3241 3242 3243 3245 3245 3246 3247 3248 3249 3250 3250 3251 3252 3252 3253 3254 3254 3255 3256 3256 3256 3257 3258 3258 3259 3260
3214 3215 3217 3219 3221 3222 3224 3226 3228 3230 3232 3233 3234 3236 3237 3238 3239 3241 3242 3243 3244 3245 3246 3247 3248 3249 3249 3250 3251 3252 3252 3253 3254 3255 3255 3256 3256 3257 3257 3258 3258 3259
3212 3214 3216 3217 3218 3220 3222 3224 3226 3228 3230 3231 3232 3234 3235 3236 3238 3239 3240 3242 3243 3244 3245 3246 3246 3247 3248 3249 3250 3250 3251 3252 3253 3254 3255 3255 3256 3256 3257 3257 3258 3259
3210 3212 3214 3215 3216 3218 3220 3222 3224 3226 3227 3228 3230 3232 3233 3234 3235 3237 3238 3240 3241 3242 3243 3244 3245 3246 3246 3247 3248 3249 3250 3251 3252 3253 3254 3255 3255 3256 3256 3257 3257 3258
3208 3210 3211 3212 3214 3216 3218 3220 3222 3223 3225 3226 3228 3229 3230 3232 3233 3234 3236 3237 3238 3240 3241 3242 3243 3244 3245 3246 3247 3248 3249 3250 3251 3252 3253 3254 3254 3255 3255 3256 3257 3257
3205 3207 3208 3210 3212 3214 3216 3218 3220 3221 3223 3224 3226 3227 3228 3230 3231 3232 3233 3234 3236 3238 3239 3240 3241 3242 3243 3244 3245 3246 3247 3248 3249 3250 3251 3252 3253 3254 3254 3255 3255 3256
3203 3204 3206 3208 3210 3212 3214 3216 3217 3219 3220 3222 3223 3225 3226 3228 3229 3230 3231 3232 3234 3235 3237 3238 3239 3240 3241 3242 3243 3244 3245 3246 3247 3248 3249 3250 3251 3252 3253 3253 3254 3255
3200 3202 3204 3206 3208 3210 3212 3213 3215 3216 3218 3219 3221 3223 3224 3225 3226 3228 3229 3230 3231 3233 3234 3236 3237 3238 3239 3240 3240 3241 3242 3243 3245 3246 3247 3248 3249 3250 3251 3251 3252 3253
3198 3199 3201 3203 3205 3207 3209 3210 3212 3213 3215 3217 3218 3220 3221 3223 3224 3226 3227 3228 3229 3230 3232 3233 3234 3235 3236 3237 3238 3239 3240 3241 3242 3243 3244 3245 3246 3248 3248 3249 3250 3251
3195 3197 3199 3201 3202 3204 3205 3207 3209 3210 3212 3214 3215 3217 3219 3220 3222 3223 3224 3225 3226 3227 3229 3230 3231 3232 3234 3235 3236 3237 3238 3239 3240 3240 3242 3243 3244 3245 3246 3247 3248 3248
3193 3194 3196 3198 3199 3201 3203 3204 3206 3207 3209 3210 3212 3214 3216 3217 3219 3220 3221 3222 3223 3224 3225 3226 3227 3229 3231 3233 3234 3235 3235 3236 3237 3237 3238 3240 3241 3242 3243 3244 3245 3246
3190 3192 3193 3195 3196 3198 3200 3201 3203 3204 3206 3207 3209 3211 3213 3214 3215 3216 3217 3219 3220 3221 3222 3223 3224 3226 3228 3230 3231 3232 3233 3233 3234 3235 3235 3236 3237 3239 3240 3241 3242 3243
3187 3188 3190 3192 3193 3195 3197 3198 3200 3201 3203 3204 3206 3208 3210 3211 3212 3213 3215 3216 3217 3218 3219 3219 3221 3223 3225 3226 3228 3229 3230 3230 3231 3231 3232 3233 3234 3235 3237 3238 3239 3240
3183 3185 3187 3188 3190 3192 3194 3195 3196 3198 3199 3201 3203 3205 3206 3207 3209 3210 3211 3213 3214 3215 3216 3217 3218 3220 3222 3223 3224 3226 3227 3227 3227 3228 3229 3230 3231 3232 3233 3235 3235 3236
3179 3181 3183 3185 3187 3188 3190 3191 3192 3194 3196 3198 3200 3201 3202 3204 3206 3207 3208 3210 3211 3212 3213 3214 3216 3217 3219 3220 3221 3223 3224 3224 3224 3225 3225 3226 3227 3229 3230 3231 3232 3233
3175 3176 3178 3180 3182 3184 3185 3186 3188 3190 3192 3194 3196 3197 3199 3201 3202 3204 3205 3206 3208 3209 3210 3211 3212 3214 3215 3216 3218 3219 3220 3221 3221 3221 3222 3223 3224 3225 3226 3228 3229 3230
3171 3173 3175 3176 3178 3179 3180 3181 3183 3185 3188 3190 3192 3193 3195 3197 3198 3200 3202 3203 3204 3205 3206 3207 3209 3211 3212 3213 3215 3216 3217 3217 3217 3218 3219 3219 3221 3222 3223 3224 3225 3226
3166 3168 3170 3172 3174 3175 3177 3178 3180 3181 3183 3185 3187 3189 3191 3193 3195 3196 3198 3199 3201 3202 3203 3204 3206 3208 3209 3210 3211 3212 3213 3213 3214 3215 3215 3216 3217 3219 3219 3220 3222 3222
3161 3163 3166 3168 3170 3172 3174 3176 3178 3180 3181 3182 3183 3184 3186 3188 3190 3192 3193 3195 3196 3198 3200 3201 3203 3205 3206 3207 3208 3209 3209 3209 3210 3211 3211 3212 3213 3215 3216 3216 3218 3218
3156 3158 3161 3163 3166 3169 3172 3174 3177 3178 3179 3179 3180 3181 3182 3184 3186 3187 3188 3190 3192 3194 3196 3197 3199 3201 3203 3203 3204 3205 3205 3206 3207 3207 3207 3208 3209 3211 3212 3212 3213 3215
3151 3154 3156 3159 3162 3165 3168 3171 3173 3175 3176 3177 3178 3179 3180 3181 3182 3184 3185 3186 3187 3189 3191 3192 3194 3197 3199 3200 3201 3201 3202 3202 3203 3203 3204 3205 3206 3207 3208 3208 3210 3211